| time (UTC) | temp C | wind direction | speed KPH | gust KPH | rain 1hr cm | rain 24hr cm | rain mn cm | humidity % | barometer mb |
| 20260906155428 | 34 | 234 | 0.0 | 0.0 | 0.00 | 0.00 | 0.00 | 52 | 1015.0 |
| 20260906154924 | 34 | 105 | 0.0 | 0.0 | 0.00 | 0.00 | 0.00 | 51 | 1015.0 |
| 20260906154419 | 34 | 27 | 0.0 | 1.6 | 0.00 | 0.00 | 0.00 | 54 | 1015.0 |
| 20260906153918 | 34 | 106 | 0.0 | 0.0 | 0.00 | 0.00 | 0.00 | 53 | 1014.8 |
| 20260906153416 | 33 | 174 | 0.0 | 0.0 | 0.00 | 0.00 | 0.00 | 54 | 1014.8 |
| 20260906152912 | 33 | 7 | 0.0 | 0.0 | 0.00 | 0.00 | 0.00 | 56 | 1014.9 |
| 20260906152407 | 33 | 273 | 1.6 | 1.6 | 0.00 | 0.00 | 0.00 | 57 | 1015.0 |
| 20260906151906 | 32 | 56 | 0.0 | 0.0 | 0.00 | 0.00 | 0.00 | 59 | 1014.7 |
| 20260906151402 | 32 | 51 | 0.0 | 0.0 | 0.00 | 0.00 | 0.00 | 60 | 1014.8 |
| 20260906150857 | 32 | 356 | 0.0 | 0.0 | 0.00 | 0.00 | 0.00 | 61 | 1014.9 |
| 20260906150352 | 32 | 53 | 0.0 | 0.0 | 0.00 | 0.00 | 0.00 | 62 | 1014.8 |
| 20260906145851 | 32 | 60 | 0.0 | 0.0 | 0.00 | 0.00 | 0.00 | 62 | 1014.9 |
| 20260906145350 | 31 | 71 | 0.0 | 0.0 | 0.00 | 0.00 | 0.00 | 64 | 1014.9 |
| 20260906144845 | 30 | 57 | 0.0 | 0.0 | 0.00 | 0.00 | 0.00 | 66 | 1014.8 |
| 20260906144340 | 30 | 295 | 0.0 | 0.0 | 0.00 | 0.00 | 0.00 | 69 | 1014.9 |
| 20260906143835 | 29 | 84 | 0.0 | 0.0 | 0.00 | 0.00 | 0.00 | 70 | 1014.9 |
| 20260906143331 | 29 | 61 | 0.0 | 0.0 | 0.00 | 0.00 | 0.00 | 71 | 1015.0 |
| 20260906142826 | 28 | 62 | 0.0 | 0.0 | 0.00 | 0.00 | 0.00 | 71 | 1015.0 |
| 20260906142321 | 28 | 72 | 0.0 | 0.0 | 0.00 | 0.00 | 0.00 | 73 | 1015.0 |
| 20260906141820 | 28 | 67 | 0.0 | 0.0 | 0.00 | 0.00 | 0.00 | 75 | 1015.1 |
| 20260906141315 | 28 | 38 | 0.0 | 0.0 | 0.00 | 0.00 | 0.00 | 75 | 1015.0 |
| 20260906140813 | 27 | 77 | 0.0 | 0.0 | 0.00 | 0.00 | 0.00 | 75 | 1015.2 |
| 20260906140309 | 27 | 82 | 0.0 | 0.0 | 0.00 | 0.00 | 0.00 | 77 | 1015.0 |
| 20260906135807 | 27 | 83 | 0.0 | 0.0 | 0.00 | 0.00 | 0.00 | 79 | 1015.1 |
| 20260906135305 | 26 | 83 | 0.0 | 0.0 | 0.00 | 0.00 | 0.00 | 77 | 1014.9 |
| 20260906134757 | 26 | 84 | 0.0 | 0.0 | 0.00 | 0.00 | 0.00 | 80 | 1014.9 |
| 20260906134252 | 26 | 85 | 0.0 | 0.0 | 0.00 | 0.00 | 0.00 | 80 | 1014.9 |
| 20260906133748 | 25 | 82 | 0.0 | 0.0 | 0.00 | 0.00 | 0.00 | 81 | 1014.9 |
| 20260906133243 | 25 | 82 | 0.0 | 0.0 | 0.00 | 0.00 | 0.00 | 81 | 1014.9 |
| 20260906132738 | 25 | 112 | 0.0 | 0.0 | 0.00 | 0.00 | 0.00 | 83 | 1014.9 |
| 20260906132228 | 25 | 82 | 0.0 | 0.0 | 0.00 | 0.00 | 0.00 | 85 | 1014.9 |
| 20260906131724 | 24 | 86 | 0.0 | 0.0 | 0.00 | 0.00 | 0.00 | 87 | 1014.8 |
| 20260906131219 | 23 | 86 | 0.0 | 0.0 | 0.00 | 0.00 | 0.00 | 88 | 1014.8 |
| 20260906130714 | 23 | 91 | 0.0 | 0.0 | 0.00 | 0.00 | 0.00 | 89 | 1014.8 |
| 20260906130209 | 23 | 92 | 0.0 | 0.0 | 0.00 | 0.00 | 0.00 | 89 | 1014.6 |
| 20260906125708 | 23 | 92 | 0.0 | 0.0 | 0.00 | 0.00 | 0.00 | 90 | 1014.5 |
| 20260906125206 | 23 | 92 | 0.0 | 0.0 | 0.00 | 0.00 | 0.00 | 90 | 1014.5 |
| 20260906124701 | 23 | 92 | 0.0 | 0.0 | 0.00 | 0.00 | 0.00 | 90 | 1014.5 |
| 20260906124157 | 22 | 93 | 0.0 | 0.0 | 0.00 | 0.00 | 0.00 | 90 | 1014.5 |
| 20260906123655 | 22 | 93 | 0.0 | 0.0 | 0.00 | 0.00 | 0.00 | 90 | 1014.3 |
| 20260906123151 | 22 | 92 | 0.0 | 0.0 | 0.00 | 0.00 | 0.00 | 91 | 1014.4 |
| 20260906122650 | 22 | 95 | 0.0 | 0.0 | 0.00 | 0.00 | 0.00 | 91 | 1014.3 |
| 20260906122146 | 22 | 96 | 0.0 | 0.0 | 0.00 | 0.00 | 0.00 | 92 | 1014.5 |
| 20260906121642 | 22 | 85 | 0.0 | 0.0 | 0.00 | 0.00 | 0.00 | 92 | 1014.4 |
| 20260906121138 | 22 | 93 | 0.0 | 0.0 | 0.00 | 0.00 | 0.00 | 92 | 1014.3 |
| 20260906120633 | 22 | 94 | 0.0 | 0.0 | 0.00 | 0.00 | 0.00 | 92 | 1014.3 |
| 20260906120130 | 22 | 93 | 0.0 | 0.0 | 0.00 | 0.00 | 0.00 | 92 | 1014.1 |
| 20260906115625 | 22 | 91 | 0.0 | 0.0 | 0.00 | 0.00 | 0.00 | 92 | 1014.1 |
| 20260906115120 | 22 | 99 | 0.0 | 0.0 | 0.00 | 0.00 | 0.00 | 92 | 1014.2 |
| 20260906114619 | 22 | 94 | 0.0 | 0.0 | 0.00 | 0.00 | 0.00 | 92 | 1013.8 |
| 20260906114115 | 22 | 101 | 0.0 | 0.0 | 0.00 | 0.00 | 0.00 | 92 | 1013.8 |
| 20260906113615 | 22 | 80 | 0.0 | 0.0 | 0.00 | 0.00 | 0.00 | 91 | 1013.9 |
| 20260906113109 | 22 | 76 | 0.0 | 0.0 | 0.00 | 0.00 | 0.00 | 91 | 1014.1 |
| 20260906112609 | 22 | 76 | 0.0 | 0.0 | 0.00 | 0.00 | 0.00 | 91 | 1014.1 |
| 20260906112106 | 22 | 79 | 0.0 | 0.0 | 0.00 | 0.00 | 0.00 | 91 | 1014.1 |
| 20260906111605 | 22 | 93 | 0.0 | 0.0 | 0.00 | 0.00 | 0.00 | 90 | 1014.0 |
| 20260906111100 | 22 | 96 | 0.0 | 0.0 | 0.00 | 0.00 | 0.00 | 90 | 1013.8 |
| 20260906110600 | 22 | 109 | 0.0 | 0.0 | 0.00 | 0.00 | 0.00 | 90 | 1013.9 |
| 20260906110059 | 22 | 84 | 0.0 | 0.0 | 0.00 | 0.00 | 0.00 | 90 | 1013.7 |
| 20260906105554 | 22 | 92 | 0.0 | 0.0 | 0.00 | 0.00 | 0.00 | 89 | 1013.7 |
| 20260906105050 | 22 | 93 | 0.0 | 0.0 | 0.00 | 0.00 | 0.00 | 89 | 1013.8 |
| 20260906104549 | 22 | 77 | 0.0 | 0.0 | 0.00 | 0.00 | 0.00 | 89 | 1013.8 |
| 20260906104043 | 23 | 60 | 0.0 | 0.0 | 0.00 | 0.00 | 0.00 | 88 | 1013.5 |
| 20260906103541 | 23 | 43 | 0.0 | 0.0 | 0.00 | 0.00 | 0.00 | 88 | 1013.8 |
| 20260906103037 | 23 | 77 | 0.0 | 0.0 | 0.00 | 0.00 | 0.00 | 88 | 1013.5 |
| 20260906102537 | 23 | 111 | 0.0 | 0.0 | 0.00 | 0.00 | 0.00 | 87 | 1013.4 |
| 20260906102032 | 23 | 113 | 0.0 | 0.0 | 0.00 | 0.00 | 0.00 | 87 | 1013.4 |
| 20260906101526 | 23 | 117 | 0.0 | 0.0 | 0.00 | 0.00 | 0.00 | 88 | 1013.4 |
| 20260906101021 | 23 | 115 | 0.0 | 0.0 | 0.00 | 0.00 | 0.00 | 87 | 1013.4 |
| 20260906100517 | 23 | 118 | 0.0 | 0.0 | 0.00 | 0.00 | 0.00 | 87 | 1013.5 |
| 20260906100012 | 23 | 117 | 0.0 | 0.0 | 0.00 | 0.00 | 0.00 | 87 | 1013.2 |
| 20260906095507 | 23 | 106 | 0.0 | 0.0 | 0.00 | 0.00 | 0.00 | 88 | 1013.4 |
| 20260906095002 | 23 | 104 | 0.0 | 0.0 | 0.00 | 0.00 | 0.00 | 88 | 1013.3 |
| 20260906094500 | 22 | 102 | 0.0 | 0.0 | 0.00 | 0.00 | 0.00 | 89 | 1013.3 |
| 20260906093957 | 22 | 102 | 0.0 | 0.0 | 0.00 | 0.00 | 0.00 | 89 | 1013.3 |
| 20260906093453 | 22 | 86 | 0.0 | 0.0 | 0.00 | 0.00 | 0.00 | 89 | 1013.3 |
| 20260906092948 | 23 | 100 | 0.0 | 0.0 | 0.00 | 0.00 | 0.00 | 88 | 1013.4 |
| 20260906092448 | 23 | 93 | 0.0 | 0.0 | 0.00 | 0.00 | 0.00 | 88 | 1013.3 |
| 20260906091943 | 23 | 96 | 0.0 | 0.0 | 0.00 | 0.00 | 0.00 | 88 | 1013.3 |
| 20260906091439 | 23 | 96 | 0.0 | 0.0 | 0.00 | 0.00 | 0.00 | 88 | 1013.1 |
| 20260906090935 | 23 | 91 | 0.0 | 0.0 | 0.00 | 0.00 | 0.00 | 88 | 1013.1 |
| 20260906090430 | 23 | 90 | 0.0 | 0.0 | 0.00 | 0.00 | 0.00 | 88 | 1013.2 |
| 20260906085929 | 23 | 90 | 0.0 | 0.0 | 0.00 | 0.00 | 0.00 | 88 | 1013.1 |
| 20260906085429 | 23 | 90 | 0.0 | 0.0 | 0.00 | 0.00 | 0.00 | 87 | 1013.2 |
| 20260906084928 | 23 | 90 | 0.0 | 0.0 | 0.00 | 0.00 | 0.00 | 87 | 1012.9 |
| 20260906084423 | 23 | 90 | 0.0 | 0.0 | 0.00 | 0.00 | 0.00 | 87 | 1013.1 |
| 20260906083922 | 23 | 102 | 0.0 | 0.0 | 0.00 | 0.00 | 0.00 | 86 | 1012.9 |
| 20260906083418 | 23 | 103 | 0.0 | 0.0 | 0.00 | 0.00 | 0.00 | 85 | 1012.8 |
| 20260906082917 | 23 | 103 | 0.0 | 0.0 | 0.00 | 0.00 | 0.00 | 85 | 1012.9 |
| 20260906082413 | 23 | 103 | 0.0 | 0.0 | 0.00 | 0.00 | 0.00 | 85 | 1012.7 |
| 20260906081908 | 23 | 103 | 0.0 | 0.0 | 0.00 | 0.00 | 0.00 | 85 | 1012.7 |
| 20260906081403 | 23 | 103 | 0.0 | 0.0 | 0.00 | 0.00 | 0.00 | 84 | 1013.0 |
| 20260906080900 | 23 | 103 | 0.0 | 0.0 | 0.00 | 0.00 | 0.00 | 84 | 1012.8 |
| 20260906080356 | 23 | 108 | 0.0 | 0.0 | 0.00 | 0.00 | 0.00 | 84 | 1012.8 |
| 20260906075855 | 23 | 107 | 0.0 | 0.0 | 0.00 | 0.00 | 0.00 | 83 | 1013.0 |
| 20260906075350 | 24 | 107 | 0.0 | 0.0 | 0.00 | 0.00 | 0.00 | 83 | 1013.0 |
| 20260906074845 | 24 | 107 | 0.0 | 0.0 | 0.00 | 0.00 | 0.00 | 82 | 1012.8 |
| 20260906074340 | 24 | 103 | 0.0 | 0.0 | 0.00 | 0.00 | 0.00 | 82 | 1013.0 |
| 20260906073839 | 24 | 103 | 0.0 | 0.0 | 0.00 | 0.00 | 0.00 | 82 | 1013.1 |
| 20260906073334 | 24 | 103 | 0.0 | 0.0 | 0.00 | 0.00 | 0.00 | 83 | 1013.0 |
| 20260906072831 | 24 | 103 | 0.0 | 0.0 | 0.00 | 0.00 | 0.00 | 83 | 1013.2 |
| 20260906072326 | 24 | 103 | 0.0 | 0.0 | 0.00 | 0.00 | 0.00 | 82 | 1013.2 |
| 20260906071822 | 24 | 103 | 0.0 | 0.0 | 0.00 | 0.00 | 0.00 | 83 | 1013.1 |
| 20260906071321 | 24 | 103 | 0.0 | 0.0 | 0.00 | 0.00 | 0.00 | 82 | 1013.2 |
| 20260906070818 | 24 | 103 | 0.0 | 0.0 | 0.00 | 0.00 | 0.00 | 81 | 1013.3 |
| 20260906070313 | 24 | 103 | 0.0 | 0.0 | 0.00 | 0.00 | 0.00 | 81 | 1013.4 |
| 20260906065808 | 25 | 103 | 0.0 | 0.0 | 0.00 | 0.00 | 0.00 | 80 | 1013.4 |
| 20260906065305 | 25 | 103 | 0.0 | 0.0 | 0.00 | 0.00 | 0.00 | 80 | 1013.2 |
| 20260906064759 | 25 | 103 | 0.0 | 0.0 | 0.00 | 0.00 | 0.00 | 80 | 1013.3 |
| 20260906064254 | 25 | 103 | 0.0 | 0.0 | 0.00 | 0.00 | 0.00 | 80 | 1013.4 |
| 20260906063749 | 25 | 103 | 0.0 | 0.0 | 0.00 | 0.00 | 0.00 | 79 | 1013.5 |
| 20260906063245 | 25 | 103 | 0.0 | 0.0 | 0.00 | 0.00 | 0.00 | 80 | 1013.5 |
| 20260906062740 | 25 | 103 | 0.0 | 0.0 | 0.00 | 0.00 | 0.00 | 80 | 1013.5 |
| 20260906062239 | 25 | 103 | 0.0 | 0.0 | 0.00 | 0.00 | 0.00 | 80 | 1013.5 |
| 20260906061735 | 25 | 103 | 0.0 | 0.0 | 0.00 | 0.00 | 0.00 | 80 | 1013.5 |
| 20260906061231 | 25 | 95 | 0.0 | 0.0 | 0.00 | 0.00 | 0.00 | 80 | 1013.4 |
| 20260906060726 | 25 | 95 | 0.0 | 0.0 | 0.00 | 0.00 | 0.00 | 80 | 1013.4 |
| 20260906060224 | 25 | 95 | 0.0 | 0.0 | 0.00 | 0.00 | 0.00 | 79 | 1013.3 |
| 20260906055719 | 25 | 108 | 0.0 | 0.0 | 0.00 | 0.00 | 0.00 | 78 | 1013.3 |
| 20260906055214 | 25 | 109 | 0.0 | 0.0 | 0.00 | 0.00 | 0.00 | 78 | 1013.2 |
| 20260906054710 | 25 | 109 | 0.0 | 0.0 | 0.00 | 0.00 | 0.00 | 78 | 1013.3 |
| 20260906054209 | 25 | 110 | 0.0 | 0.0 | 0.00 | 0.00 | 0.00 | 78 | 1013.4 |
| 20260906053707 | 25 | 105 | 0.0 | 0.0 | 0.00 | 0.00 | 0.00 | 77 | 1013.2 |
| 20260906053201 | 25 | 105 | 0.0 | 0.0 | 0.00 | 0.00 | 0.00 | 76 | 1013.2 |
| 20260906052656 | 25 | 104 | 0.0 | 0.0 | 0.00 | 0.00 | 0.00 | 76 | 1013.2 |
| 20260906052153 | 26 | 106 | 0.0 | 0.0 | 0.00 | 0.00 | 0.00 | 77 | 1013.2 |
| 20260906051649 | 26 | 107 | 0.0 | 0.0 | 0.00 | 0.00 | 0.00 | 75 | 1013.1 |
| 20260906051149 | 26 | 107 | 0.0 | 0.0 | 0.00 | 0.00 | 0.00 | 75 | 1013.1 |
| 20260906050644 | 26 | 99 | 0.0 | 0.0 | 0.00 | 0.00 | 0.00 | 74 | 1012.8 |
| 20260906050139 | 26 | 157 | 0.0 | 0.0 | 0.00 | 0.00 | 0.00 | 74 | 1012.9 |
| 20260906045638 | 26 | 119 | 0.0 | 0.0 | 0.00 | 0.00 | 0.00 | 74 | 1012.7 |
| 20260906045133 | 26 | 137 | 0.0 | 0.0 | 0.00 | 0.00 | 0.00 | 74 | 1012.9 |
| 20260906044629 | 26 | 46 | 0.0 | 0.0 | 0.00 | 0.00 | 0.00 | 73 | 1012.9 |
| 20260906044124 | 27 | 76 | 0.0 | 0.0 | 0.00 | 0.00 | 0.00 | 74 | 1012.6 |
| 20260906043620 | 27 | 82 | 0.0 | 0.0 | 0.00 | 0.00 | 0.00 | 71 | 1012.7 |
| 20260906043116 | 27 | 101 | 0.0 | 0.0 | 0.00 | 0.00 | 0.00 | 68 | 1012.9 |
| 20260906042615 | 27 | 101 | 0.0 | 0.0 | 0.00 | 0.00 | 0.00 | 68 | 1012.9 |
| 20260906042109 | 27 | 101 | 0.0 | 0.0 | 0.00 | 0.00 | 0.00 | 68 | 1013.0 |
| 20260906041606 | 27 | 102 | 0.0 | 0.0 | 0.00 | 0.00 | 0.00 | 70 | 1012.9 |
| 20260906041100 | 27 | 86 | 0.0 | 0.0 | 0.00 | 0.00 | 0.00 | 69 | 1012.8 |
| 20260906040556 | 27 | 86 | 0.0 | 0.0 | 0.00 | 0.00 | 0.00 | 70 | 1012.9 |
| 20260906040051 | 27 | 85 | 0.0 | 0.0 | 0.00 | 0.00 | 0.00 | 70 | 1012.8 |
| 20260906035546 | 27 | 85 | 0.0 | 0.0 | 0.00 | 0.00 | 0.00 | 70 | 1013.0 |
| 20260906035042 | 27 | 84 | 0.0 | 0.0 | 0.00 | 0.00 | 0.00 | 73 | 1012.9 |
| 20260906034542 | 27 | 85 | 0.0 | 0.0 | 0.00 | 0.00 | 0.00 | 73 | 1013.1 |
| 20260906034037 | 27 | 88 | 0.0 | 0.0 | 0.00 | 0.00 | 0.00 | 70 | 1012.8 |
| 20260906033532 | 27 | 89 | 0.0 | 0.0 | 0.00 | 0.00 | 0.00 | 69 | 1013.0 |
| 20260906033022 | 27 | 89 | 0.0 | 0.0 | 0.00 | 0.00 | 0.00 | 69 | 1013.0 |
| 20260906032518 | 27 | 89 | 0.0 | 0.0 | 0.00 | 0.00 | 0.00 | 69 | 1012.8 |
| 20260906032012 | 27 | 89 | 0.0 | 0.0 | 0.00 | 0.00 | 0.00 | 69 | 1012.9 |
| 20260906031508 | 27 | 89 | 0.0 | 0.0 | 0.00 | 0.00 | 0.00 | 69 | 1013.0 |
| 20260906031003 | 27 | 88 | 0.0 | 0.0 | 0.00 | 0.00 | 0.00 | 69 | 1013.0 |
| 20260906030458 | 28 | 88 | 0.0 | 0.0 | 0.00 | 0.00 | 0.00 | 68 | 1012.8 |
| 20260906025957 | 28 | 98 | 0.0 | 0.0 | 0.00 | 0.00 | 0.00 | 67 | 1012.9 |
| 20260906025457 | 28 | 103 | 0.0 | 0.0 | 0.00 | 0.00 | 0.00 | 65 | 1012.8 |
| 20260906024955 | 28 | 106 | 0.0 | 0.0 | 0.00 | 0.00 | 0.00 | 66 | 1013.0 |
| 20260906024450 | 28 | 106 | 0.0 | 0.0 | 0.00 | 0.00 | 0.00 | 65 | 1012.8 |
| 20260906023950 | 28 | 137 | 0.0 | 0.0 | 0.00 | 0.00 | 0.00 | 65 | 1012.8 |
| 20260906023447 | 28 | 71 | 0.0 | 0.0 | 0.00 | 0.00 | 0.00 | 64 | 1012.6 |
| 20260906022947 | 28 | 76 | 0.0 | 0.0 | 0.00 | 0.00 | 0.00 | 63 | 1012.6 |
| 20260906022442 | 28 | 105 | 0.0 | 0.0 | 0.00 | 0.00 | 0.00 | 64 | 1012.7 |
| 20260906021937 | 28 | 105 | 0.0 | 0.0 | 0.00 | 0.00 | 0.00 | 63 | 1012.4 |
| 20260906021432 | 29 | 105 | 0.0 | 0.0 | 0.00 | 0.00 | 0.00 | 63 | 1012.5 |
| 20260906020926 | 29 | 110 | 0.0 | 0.0 | 0.00 | 0.00 | 0.00 | 62 | 1012.3 |
| 20260906020421 | 29 | 112 | 0.0 | 0.0 | 0.00 | 0.00 | 0.00 | 63 | 1012.2 |
| 20260906015915 | 29 | 116 | 0.0 | 0.0 | 0.00 | 0.00 | 0.00 | 62 | 1012.1 |
| 20260906015414 | 29 | 104 | 0.0 | 0.0 | 0.00 | 0.00 | 0.00 | 63 | 1012.1 |
| 20260906014909 | 29 | 104 | 0.0 | 0.0 | 0.00 | 0.00 | 0.00 | 63 | 1012.0 |
| 20260906014408 | 29 | 104 | 0.0 | 0.0 | 0.00 | 0.00 | 0.00 | 61 | 1011.8 |
| 20260906013905 | 29 | 103 | 0.0 | 0.0 | 0.00 | 0.00 | 0.00 | 62 | 1011.8 |
| 20260906013400 | 29 | 104 | 0.0 | 0.0 | 0.00 | 0.00 | 0.00 | 61 | 1011.8 |
| 20260906012855 | 29 | 104 | 0.0 | 0.0 | 0.00 | 0.00 | 0.00 | 61 | 1011.8 |
| 20260906012350 | 29 | 94 | 0.0 | 0.0 | 0.00 | 0.00 | 0.00 | 60 | 1011.6 |
| 20260906011850 | 30 | 94 | 0.0 | 0.0 | 0.00 | 0.00 | 0.00 | 59 | 1011.6 |
| 20260906011345 | 30 | 82 | 0.0 | 0.0 | 0.00 | 0.00 | 0.00 | 58 | 1011.8 |
| 20260906010841 | 30 | 104 | 0.0 | 0.0 | 0.00 | 0.00 | 0.00 | 57 | 1011.6 |
| 20260906010336 | 30 | 104 | 0.0 | 0.0 | 0.00 | 0.00 | 0.00 | 56 | 1011.5 |
| 20260906005832 | 30 | 111 | 0.0 | 0.0 | 0.00 | 0.00 | 0.00 | 55 | 1011.5 |
| 20260906005331 | 31 | 105 | 0.0 | 0.0 | 0.00 | 0.00 | 0.00 | 54 | 1011.4 |
| 20260906004830 | 31 | 116 | 0.0 | 0.0 | 0.00 | 0.00 | 0.00 | 53 | 1011.4 |
| 20260906004330 | 31 | 120 | 0.0 | 0.0 | 0.00 | 0.00 | 0.00 | 52 | 1011.5 |
| 20260906003825 | 31 | 116 | 0.0 | 0.0 | 0.00 | 0.00 | 0.00 | 51 | 1011.7 |
| 20260906003320 | 32 | 115 | 0.0 | 0.0 | 0.00 | 0.00 | 0.00 | 50 | 1011.4 |
| 20260906002816 | 32 | 99 | 0.0 | 0.0 | 0.00 | 0.00 | 0.00 | 49 | 1011.5 |
| 20260906002315 | 32 | 97 | 0.0 | 0.0 | 0.00 | 0.00 | 0.00 | 48 | 1011.4 |
| 20260906001811 | 33 | 75 | 0.0 | 0.0 | 0.00 | 0.00 | 0.00 | 47 | 1011.5 |
| 20260906001307 | 33 | 74 | 0.0 | 0.0 | 0.00 | 0.00 | 0.00 | 47 | 1011.4 |
| 20260906000807 | 33 | 63 | 0.0 | 0.0 | 0.00 | 0.00 | 0.00 | 46 | 1011.6 |
| 20260906000303 | 34 | 54 | 0.0 | 0.0 | 0.00 | 0.00 | 0.00 | 45 | 1011.6 |
| 20260905235756 | 35 | 54 | 0.0 | 0.0 | 0.00 | 0.00 | 0.00 | 46 | 1011.5 |
| 20260905235256 | 35 | 54 | 0.0 | 0.0 | 0.00 | 0.00 | 0.00 | 44 | 1011.7 |
| 20260905234751 | 36 | 54 | 0.0 | 0.0 | 0.00 | 0.00 | 0.00 | 42 | 1011.6 |
| 20260905234246 | 36 | 54 | 0.0 | 0.0 | 0.00 | 0.00 | 0.00 | 40 | 1011.6 |
| 20260905233742 | 37 | 53 | 0.0 | 0.0 | 0.00 | 0.00 | 0.00 | 38 | 1011.4 |
| 20260905233241 | 37 | 54 | 0.0 | 0.0 | 0.00 | 0.00 | 0.00 | 37 | 1011.7 |
| 20260905232735 | 37 | 137 | 0.0 | 0.0 | 0.00 | 0.00 | 0.00 | 35 | 1011.6 |
| 20260905232232 | 37 | 110 | 0.0 | 0.0 | 0.00 | 0.00 | 0.00 | 38 | 1011.6 |
| 20260905231727 | 37 | 95 | 0.0 | 0.0 | 0.00 | 0.00 | 0.00 | 39 | 1011.4 |
| 20260905231223 | 37 | 67 | 0.0 | 0.0 | 0.00 | 0.00 | 0.00 | 38 | 1011.6 |
| 20260905230719 | 37 | 55 | 0.0 | 0.0 | 0.00 | 0.00 | 0.00 | 38 | 1011.4 |
| 20260905230217 | 37 | 57 | 0.0 | 0.0 | 0.00 | 0.00 | 0.00 | 38 | 1011.5 |
| 20260905225716 | 38 | 48 | 0.0 | 0.0 | 0.00 | 0.00 | 0.00 | 38 | 1011.4 |
| 20260905225212 | 38 | 71 | 0.0 | 1.6 | 0.00 | 0.00 | 0.00 | 37 | 1011.5 |
| 20260905224711 | 40 | 49 | 0.0 | 0.0 | 0.00 | 0.00 | 0.00 | 36 | 1011.4 |
| 20260905224206 | 40 | 93 | 0.0 | 0.0 | 0.00 | 0.00 | 0.00 | 35 | 1011.3 |
| 20260905223703 | 39 | 101 | 1.6 | 1.6 | 0.00 | 0.00 | 0.00 | 35 | 1011.6 |
| 20260905223159 | 39 | 44 | 0.0 | 0.0 | 0.00 | 0.00 | 0.00 | 36 | 1011.4 |
| 20260905222654 | 40 | 49 | 0.0 | 1.6 | 0.00 | 0.00 | 0.00 | 36 | 1011.4 |
| 20260905222154 | 39 | 39 | 0.0 | 0.0 | 0.00 | 0.00 | 0.00 | 35 | 1011.4 |
| 20260905221649 | 39 | 175 | 1.6 | 1.6 | 0.00 | 0.00 | 0.00 | 34 | 1011.4 |
| 20260905221146 | 40 | 2 | 1.6 | 1.6 | 0.00 | 0.00 | 0.00 | 36 | 1011.5 |
| 20260905220647 | 40 | 162 | 0.0 | 1.6 | 0.00 | 0.00 | 0.00 | 34 | 1011.3 |
| 20260905220143 | 40 | 78 | 0.0 | 0.0 | 0.00 | 0.00 | 0.00 | 35 | 1011.4 |
| 20260905215642 | 40 | 123 | 0.0 | 0.0 | 0.00 | 0.00 | 0.00 | 35 | 1011.5 |
| 20260905215138 | 40 | 349 | 1.6 | 1.6 | 0.00 | 0.00 | 0.00 | 35 | 1011.4 |
| 20260905214634 | 40 | 21 | 1.6 | 1.6 | 0.00 | 0.00 | 0.00 | 36 | 1011.5 |
| 20260905214129 | 39 | 359 | 1.6 | 1.6 | 0.00 | 0.00 | 0.00 | 36 | 1011.6 |
| 20260905213624 | 40 | 17 | 3.2 | 4.8 | 0.00 | 0.00 | 0.00 | 36 | 1011.6 |
| 20260905213120 | 40 | 289 | 0.0 | 1.6 | 0.00 | 0.00 | 0.00 | 34 | 1011.6 |
| 20260905212614 | 40 | 5 | 1.6 | 1.6 | 0.00 | 0.00 | 0.00 | 35 | 1011.8 |
| 20260905212114 | 40 | 299 | 0.0 | 0.0 | 0.00 | 0.00 | 0.00 | 34 | 1011.9 |
| 20260905211609 | 40 | 96 | 0.0 | 0.0 | 0.00 | 0.00 | 0.00 | 35 | 1011.8 |
| 20260905211104 | 40 | 137 | 1.6 | 1.6 | 0.00 | 0.00 | 0.00 | 35 | 1012.0 |
| 20260905210601 | 39 | 120 | 1.6 | 3.2 | 0.00 | 0.00 | 0.00 | 34 | 1012.1 |
| 20260905210055 | 39 | 47 | 1.6 | 1.6 | 0.00 | 0.00 | 0.00 | 36 | 1012.1 |
| 20260905205554 | 39 | 146 | 3.2 | 3.2 | 0.00 | 0.00 | 0.00 | 36 | 1012.2 |
| 20260905205054 | 40 | 236 | 4.8 | 6.4 | 0.00 | 0.00 | 0.00 | 37 | 1012.2 |
| 20260905204549 | 40 | 190 | 3.2 | 3.2 | 0.00 | 0.00 | 0.00 | 35 | 1012.2 |
| 20260905204044 | 40 | 24 | 0.0 | 1.6 | 0.00 | 0.00 | 0.00 | 35 | 1012.4 |
| 20260905203538 | 39 | 131 | 1.6 | 1.6 | 0.00 | 0.00 | 0.00 | 36 | 1012.6 |
| 20260905203034 | 40 | 299 | 0.0 | 0.0 | 0.00 | 0.00 | 0.00 | 36 | 1012.4 |
| 20260905202529 | 38 | 218 | 1.6 | 1.6 | 0.00 | 0.00 | 0.00 | 38 | 1012.5 |
| 20260905202025 | 40 | 66 | 0.0 | 0.0 | 0.00 | 0.00 | 0.00 | 36 | 1012.7 |
| 20260905201520 | 40 | 64 | 0.0 | 0.0 | 0.00 | 0.00 | 0.00 | 35 | 1012.7 |
| 20260905201019 | 40 | 53 | 0.0 | 0.0 | 0.00 | 0.00 | 0.00 | 36 | 1013.0 |
| 20260905200515 | 41 | 22 | 0.0 | 0.0 | 0.00 | 0.00 | 0.00 | 37 | 1013.0 |
| 20260905200014 | 40 | 39 | 0.0 | 0.0 | 0.00 | 0.00 | 0.00 | 37 | 1012.9 |
| 20260905195509 | 39 | 85 | 0.0 | 0.0 | 0.00 | 0.00 | 0.00 | 37 | 1013.0 |
| 20260905195004 | 38 | 32 | 0.0 | 0.0 | 0.00 | 0.00 | 0.00 | 38 | 1013.1 |
| 20260905194504 | 39 | 151 | 3.2 | 3.2 | 0.00 | 0.00 | 0.00 | 37 | 1013.2 |
| 20260905194003 | 38 | 66 | 0.0 | 1.6 | 0.00 | 0.00 | 0.00 | 39 | 1013.2 |
| 20260905193458 | 39 | 235 | 1.6 | 1.6 | 0.00 | 0.00 | 0.00 | 37 | 1013.4 |
| 20260905192953 | 39 | 298 | 1.6 | 3.2 | 0.00 | 0.00 | 0.00 | 37 | 1013.3 |
| 20260905192448 | 39 | 24 | 3.2 | 3.2 | 0.00 | 0.00 | 0.00 | 38 | 1013.5 |
| 20260905191944 | 38 | 299 | 1.6 | 1.6 | 0.00 | 0.00 | 0.00 | 39 | 1013.5 |
| 20260905191438 | 38 | 326 | 6.4 | 9.7 | 0.00 | 0.00 | 0.00 | 39 | 1013.5 |
| 20260905190937 | 38 | 69 | 3.2 | 4.8 | 0.00 | 0.00 | 0.00 | 39 | 1013.7 |
| 20260905190435 | 38 | 213 | 1.6 | 3.2 | 0.00 | 0.00 | 0.00 | 40 | 1014.0 |
| 20260905185934 | 37 | 265 | 1.6 | 1.6 | 0.00 | 0.00 | 0.00 | 41 | 1014.1 |
| 20260905185429 | 37 | 254 | 3.2 | 4.8 | 0.00 | 0.00 | 0.00 | 42 | 1014.1 |
| 20260905184927 | 37 | 224 | 4.8 | 4.8 | 0.00 | 0.00 | 0.00 | 42 | 1014.2 |
| 20260905184422 | 37 | 355 | 3.2 | 3.2 | 0.00 | 0.00 | 0.00 | 42 | 1014.1 |
| 20260905183921 | 38 | 54 | 1.6 | 1.6 | 0.00 | 0.00 | 0.00 | 43 | 1014.2 |
| 20260905183416 | 37 | 50 | 3.2 | 3.2 | 0.00 | 0.00 | 0.00 | 43 | 1014.4 |
| 20260905182911 | 37 | 35 | 0.0 | 1.6 | 0.00 | 0.00 | 0.00 | 43 | 1014.3 |
| 20260905182410 | 38 | 226 | 0.0 | 0.0 | 0.00 | 0.00 | 0.00 | 41 | 1014.3 |
| 20260905181907 | 37 | 281 | 1.6 | 3.2 | 0.00 | 0.00 | 0.00 | 42 | 1014.4 |
| 20260905181406 | 37 | 55 | 1.6 | 3.2 | 0.00 | 0.00 | 0.00 | 42 | 1014.5 |
| 20260905180905 | 37 | 16 | 1.6 | 3.2 | 0.00 | 0.00 | 0.00 | 43 | 1014.8 |
| 20260905180400 | 37 | 39 | 0.0 | 0.0 | 0.00 | 0.00 | 0.00 | 44 | 1014.6 |
| 20260905175855 | 37 | 315 | 0.0 | 0.0 | 0.00 | 0.00 | 0.00 | 42 | 1014.6 |
| 20260905175349 | 36 | 187 | 1.6 | 1.6 | 0.00 | 0.00 | 0.00 | 43 | 1014.8 |
| 20260905174850 | 36 | 44 | 1.6 | 1.6 | 0.00 | 0.00 | 0.00 | 46 | 1014.8 |
| 20260905174345 | 36 | 18 | 1.6 | 3.2 | 0.00 | 0.00 | 0.00 | 45 | 1015.0 |
| 20260905173841 | 37 | 41 | 1.6 | 1.6 | 0.00 | 0.00 | 0.00 | 46 | 1014.9 |
| 20260905173337 | 37 | 314 | 1.6 | 3.2 | 0.00 | 0.00 | 0.00 | 44 | 1014.8 |
| 20260905172832 | 37 | 105 | 1.6 | 1.6 | 0.00 | 0.00 | 0.00 | 44 | 1015.0 |
| 20260905172330 | 37 | 65 | 0.0 | 1.6 | 0.00 | 0.00 | 0.00 | 44 | 1015.1 |
| 20260905171827 | 37 | 199 | 1.6 | 3.2 | 0.00 | 0.00 | 0.00 | 45 | 1015.1 |
| 20260905171323 | 36 | 39 | 1.6 | 1.6 | 0.00 | 0.00 | 0.00 | 47 | 1015.3 |
| 20260905170819 | 36 | 53 | 0.0 | 0.0 | 0.00 | 0.00 | 0.00 | 45 | 1015.1 |
| 20260905170315 | 37 | 30 | 0.0 | 0.0 | 0.00 | 0.00 | 0.00 | 46 | 1015.4 |
| 20260905165814 | 36 | 102 | 1.6 | 1.6 | 0.00 | 0.00 | 0.00 | 45 | 1015.3 |
| 20260905165309 | 36 | 109 | 3.2 | 4.8 | 0.00 | 0.00 | 0.00 | 46 | 1015.4 |
| 20260905164804 | 36 | 25 | 1.6 | 1.6 | 0.00 | 0.00 | 0.00 | 46 | 1015.6 |
| 20260905164304 | 35 | 53 | 1.6 | 1.6 | 0.00 | 0.00 | 0.00 | 47 | 1015.4 |
| 20260905163759 | 35 | 23 | 4.8 | 4.8 | 0.00 | 0.00 | 0.00 | 47 | 1015.6 |
| 20260905163256 | 35 | 19 | 1.6 | 1.6 | 0.00 | 0.00 | 0.00 | 48 | 1015.4 |
| 20260905162751 | 36 | 285 | 1.6 | 1.6 | 0.00 | 0.00 | 0.00 | 48 | 1015.7 |
| 20260905162251 | 35 | 76 | 0.0 | 0.0 | 0.00 | 0.00 | 0.00 | 49 | 1015.5 |
| 20260905161745 | 35 | 98 | 0.0 | 0.0 | 0.00 | 0.00 | 0.00 | 49 | 1015.5 |
| 20260905161244 | 35 | 23 | 1.6 | 1.6 | 0.00 | 0.00 | 0.00 | 49 | 1015.4 |
| 20260905160737 | 35 | 26 | 1.6 | 1.6 | 0.00 | 0.00 | 0.00 | 51 | 1015.6 |
| 20260905160232 | 35 | 48 | 0.0 | 0.0 | 0.00 | 0.00 | 0.00 | 51 | 1015.4 |